sat.trackr.live / text

‹ back to catalog

TYVAK-0130

NORAD 48606 · 2021-041BF

PAYLOAD ACTIVE UNKNOWN

§ Identity

Operator
Country
US
Launch date
2021-05-15
Launch site
AFETR
Launch vehicle
Mass (kg)
RCS (m²)

External: N2YO · Heavens-Above · Gunter

§ Orbital elements

Epoch: 2026-09-20T09:36:20.100096Z

Period
94.20 min
Inclination
52.9943°
Eccentricity
0.0010852
Mean motion
15.28704863 rev/d
Perigee alt
472.2 km
Apogee alt
487.1 km
Semi-major
6,857.8 km
B*
1.8241e-4
RAAN
303.5094°
Arg perigee
105.9820°
Mean anomaly
254.2375°
Rev number
29,494

§ Raw data

TYVAK-01301 48606U 21041BF  26263.40023264  .00004812  00000+0  18241-3 0  99952 48606  52.9943 303.5094 0010852 105.9820 254.2375 15.28704863294943

JSON: /api/v1/satellites/48606 · /tle

For live sub-satellite position, see the globe view (requires WebGL).

§ Visibility from observer

Set your observer location to see the next 7 days of passes ≥ 10°. The values pass through the URL so the page stays shareable.

No JS? Fill the form by hand. The geolocation button needs JavaScript.

§ Radio — SatNOGS DB

ModeDescriptionDownlinkUplink
FSK Downlink 400.781 MHz
FM Possible Downlink 400.765 MHz
BPSK S-band telemetry 2.202 GHz

3 transmitters · refreshed weekly from db.satnogs.org